VA3PPY Weather Reports


time (UTC)temp
C
wind
direction
speed
KPH
gust
KPH
rain 1hr
cm
rain 24hr
cm
rain mn
cm
humidity
%
barometer
mb
20260510110052 3 266 0.0 6.4 0.00 0.41 0.00 91 1013.8
20260510104552 1 266 0.0 3.2 0.00 0.41 0.00 90 1013.7
20260510103052 1 308 0.0 0.0 0.00 0.41 0.00 90 1013.5
20260510101553 1 308 0.0 1.6 0.00 0.41 0.00 88 1013.3
20260510100054 2 308 0.0 3.2 0.00 0.41 0.00 88 1013.2
20260510094553 2 308 0.0 3.2 0.00 0.41 0.00 87 1012.8
20260510093104 3 308 0.0 1.6 0.00 0.41 0.00 85 1012.5
20260510091552 4 308 0.0 4.8 0.00 0.41 0.00 85 1012.1
20260510090107 4 308 0.0 4.8 0.00 0.41 0.00 84 1011.9
20260510084552 4 308 0.0 3.2 0.00 0.41 0.00 83 1011.5
20260510083106 5 308 0.0 4.8 0.00 0.41 0.00 82 1011.3
20260510081607 5 308 0.0 3.2 0.00 0.41 0.00 81 1011.1
20260510080055 5 306 0.0 6.4 0.00 0.41 0.00 80 1011.0
20260510074558 5 321 0.0 3.2 0.00 0.41 0.00 80 1010.7
20260510073053 5 321 0.0 4.8 0.00 0.41 0.00 78 1010.5
20260510071553 5 321 3.2 12.9 0.00 0.41 0.00 77 1010.5
20260510070054 5 1 3.2 9.7 0.00 0.41 0.00 79 1010.3
20260510064603 5 13 1.6 8.0 0.00 0.41 0.00 79 1010.2
20260510063053 5 346 3.2 11.3 0.00 0.41 0.00 78 1010.0
20260510061556 6 23 3.2 14.5 0.00 0.41 0.00 77 1010.0
20260510060052 6 26 3.2 14.5 0.00 0.41 0.00 77 1010.0
20260510054553 6 23 3.2 16.1 0.00 0.41 0.00 77 1009.9
20260510053053 6 1 4.8 14.5 0.00 0.41 0.00 78 1009.8
20260510051557 6 338 4.8 16.1 0.00 0.41 0.00 78 1009.7
20260510050053 6 280 6.4 19.3 0.00 0.41 0.00 78 1009.4
20260510044627 6 1 3.2 12.9 0.00 0.41 0.00 78 1009.2
20260510043053 6 15 4.8 16.1 0.00 0.41 0.00 77 1008.9
20260510041554 7 24 3.2 20.9 0.00 0.41 0.00 75 1008.8
20260510040054 7 24 3.2 12.9 0.00 0.41 0.00 74 1008.6
20260510034553 8 49 3.2 11.3 0.00 0.41 0.41 80 1008.0
20260510033059 8 359 1.6 12.9 0.00 0.41 0.41 80 1007.9
20260510031557 8 4 0.0 9.7 0.00 0.41 0.41 82 1007.2
20260510030053 8 326 1.6 9.7 0.00 0.41 0.41 82 1007.7
20260510024554 8 300 3.2 8.0 0.00 0.41 0.41 82 1007.6
20260510023054 8 1 0.0 3.2 0.00 0.41 0.41 82 1006.4
20260510021554 8 1 0.0 4.8 0.00 0.41 0.41 79 1006.4
20260510020054 8 1 0.0 6.4 0.00 0.41 0.41 80 1006.1
20260510014554 8 11 0.0 9.7 0.00 0.41 0.41 80 1005.7
20260510013054 8 13 3.2 6.4 0.00 0.41 0.41 78 1005.3
20260510011558 8 12 1.6 14.5 0.00 0.41 0.41 77 1005.2
20260510010128 10 360 3.2 8.0 0.00 0.41 0.41 73 1004.7
20260510004554 11 330 0.0 8.0 0.00 0.41 0.41 69 1004.3
20260510003057 11 325 3.2 9.7 0.00 0.41 0.41 68 1004.1
20260510001558 11 350 1.6 4.8 0.00 0.41 0.41 70 1003.6
20260510000056 12 350 0.0 0.0 0.00 0.41 0.41 68 1003.2
20260509234623 12 350 0.0 0.0 0.00 0.41 0.41 69 1002.9
20260509233055 11 350 0.0 0.0 0.00 0.41 0.41 70 1002.5
20260509231555 11 323 0.0 11.3 0.00 0.41 0.41 69 1002.3
20260509230055 13 248 1.6 6.4 0.00 0.41 0.41 64 1001.8
20260509224554 13 248 1.6 6.4 0.00 0.41 0.41 65 1001.6
20260509223055 13 249 1.6 6.4 0.00 0.41 0.41 67 1001.4
20260509221555 15 249 1.6 9.7 0.00 0.41 0.41 61 1001.2
20260509220106 15 269 3.2 9.7 0.00 0.41 0.41 60 1000.9
20260509214555 16 255 3.2 9.7 0.00 0.41 0.41 56 1000.5
20260509213055 17 269 3.2 9.7 0.00 0.41 0.41 58 1000.4
20260509211557 17 234 4.8 11.3 0.00 0.41 0.41 58 1000.5
20260509210057 17 292 4.8 11.3 0.00 0.41 0.41 63 1000.6
20260509204601 17 222 1.6 9.7 0.00 0.41 0.41 70 1000.6
20260509203138 15 211 1.6 6.4 0.00 0.41 0.41 82 1000.5
20260509201612 14 171 3.2 12.9 0.36 0.41 0.41 85 1000.5
20260509194556 11 179 0.0 6.4 0.38 0.41 0.41 89 1001.0
20260509193119 11 231 0.0 8.0 0.38 0.41 0.41 84 1000.9
20260509191614 16 203 8.0 33.8 0.03 0.05 0.05 64 1000.7
20260509190055 17 192 9.7 25.7 0.00 0.03 0.03 60 999.6
20260509184600 17 123 12.9 37.0 0.00 0.03 0.03 58 999.9
20260509183056 18 175 8.0 33.8 0.00 0.03 0.03 54 999.9
20260509181601 18 165 9.7 27.4 0.00 0.03 0.03 57 1000.1
20260509180105 18 188 8.0 25.7 0.00 0.03 0.03 62 1000.0
20260509174557 18 241 11.3 29.0 0.00 0.03 0.03 56 1000.1
20260509173103 17 164 6.4 35.4 0.00 0.03 0.03 64 1000.5
20260509171556 17 145 16.1 40.2 0.00 0.03 0.03 58 1000.8
20260509170059 17 142 14.5 30.6 0.00 0.03 0.03 61 1000.6
20260509164607 17 167 8.0 27.4 0.00 0.03 0.03 61 1000.3
20260509163057 17 110 9.7 27.4 0.00 0.03 0.03 67 1000.8
20260509161559 17 195 6.4 20.9 0.00 0.03 0.03 70 1001.4
20260509160056 17 167 9.7 24.1 0.00 0.03 0.03 69 1001.6
20260509154556 15 147 4.8 19.3 0.00 0.03 0.03 76 1001.9
20260509153056 15 155 4.8 17.7 0.00 0.03 0.03 78 1002.4
20260509151607 14 157 4.8 17.7 0.00 0.03 0.03 78 1003.1
20260509150056 14 227 6.4 24.1 0.00 0.03 0.03 78 1003.7
20260509144556 13 150 4.8 16.1 0.03 0.03 0.03 79 1003.8
20260509143059 14 202 11.3 22.5 0.03 0.03 0.03 79 1003.3
20260509141557 13 206 6.4 20.9 0.03 0.03 0.03 82 1003.1
20260509140057 13 131 6.4 22.5 0.03 0.03 0.03 83 1003.5
20260509134556 12 158 8.0 17.7 0.00 0.00 0.00 87 1003.2
20260509133103 12 162 4.8 12.9 0.00 0.00 0.00 90 1003.2
20260509131602 11 86 4.8 14.5 0.00 0.00 0.00 92 1003.6
20260509124557 10 136 3.2 11.3 0.00 0.00 0.00 95 1003.8
20260509123057 10 165 0.0 11.3 0.00 0.00 0.00 95 1004.0
20260509121557 10 155 1.6 16.1 0.00 0.00 0.00 95 1004.4
20260509120101 9 195 6.4 17.7 0.00 0.00 0.00 95 1004.5
20260509114557 9 173 4.8 14.5 0.00 0.00 0.00 95 1004.3
20260509113106 9 168 3.2 16.1 0.00 0.00 0.00 95 1004.4
20260509111604 9 151 1.6 9.7 0.00 0.00 0.00 95 1004.2